(88264) 2001 KN20
ephemeris date magn radius delta ra dec elong phase
Today24 Aug 202619.41.216 AU0.984 AU14h54m-15°02'75.1°53.5°
(88264) 2001 KN20 - 2026-08-24
astro.vanbuitenen.nl


 
-1 year
-1 month
-1 day
Now
+1 day
+1 month
+1 year

The interactive orbit chart above shows the body's path through the solar system and its position at the given date. Green and blue lines are shown perpendicular to the ecliptic plane: Green if the path is above the ecliptic plane, blue if it is below. (Left-click and drag to rotate the view; Right-click and drag to move the view; Use scroll wheel to zoom in our out.)

The orbital elements of 2001 KN20 are:

            e (Eccentricity)                : 0.4534043
            a (Semimajor axis)              : 2.1470223
            i (Inclination)                 : 12.07959
            Ω (Longitude of ascending node) : 104.92021
            ω (Argument of perihelion)      : 201.44768
            M (Mean anomaly)                : 326.78225
            Epoch                           : 2026 Jun 09

            L (Longitude of perihelion)     : 125.93485
            B (Latitude of perihelion)      : -4.38856
            P (Orbital period in years)     : 3.15            
        

The light curve chart below shows the estimated development of the minor planet's magnitude.


The all-sky chart below shows the path of the minor planet over the same period as the light curve. The current position is marked yellow.





The following chart shows the path of the minor planet in the next few days. The field of view is optimized for (~10x50) binoculars and finderscopes.




Ephemerides:
Date       Time       RA (2000)    DEC (2000)    delta   radius  elong  phase   PA    magn
2026-08-24 00:00 UT   14 54 25.9   -15 02 35     0.984    1.216   75.1   53.5   106   19.4 
2026-08-24 18:39 UT   14 56 36.0   -15 23 04     0.984    1.214   75.0   53.5   106   19.4 
2026-08-25 00:00 UT   14 57 13.5   -15 28 56     0.984    1.213   74.9   53.6   106   19.4 
2026-08-26 00:00 UT   15 00 03.5   -15 55 15     0.984    1.211   74.7   53.6   106   19.4 
2026-08-27 00:00 UT   15 02 55.7   -16 21 32     0.984    1.208   74.6   53.7   106   19.4 
2026-08-28 00:00 UT   15 05 50.2   -16 47 47     0.984    1.206   74.4   53.8   106   19.4 
2026-08-29 00:00 UT   15 08 47.1   -17 13 57     0.985    1.203   74.2   53.9   106   19.3 
2026-08-30 00:00 UT   15 11 46.4   -17 40 04     0.985    1.201   74.0   53.9   105   19.3 
2026-08-31 00:00 UT   15 14 48.0   -18 06 06     0.985    1.199   73.9   54.0   105   19.3 
2026-09-01 00:00 UT   15 17 52.0   -18 32 03     0.985    1.197   73.7   54.1   105   19.3 
2026-09-02 00:00 UT   15 20 58.5   -18 57 54     0.985    1.195   73.6   54.1   105   19.3 
2026-09-03 00:00 UT   15 24 07.4   -19 23 38     0.986    1.193   73.5   54.2   105   19.3 


    Terminology:
            
    delta:  distance between minor planet and earth in AU
    radius: distance between minor planet and sun in AU
    magn:   magnitude (brightness) estimate    
    ra:     right ascension in hours (24h = 360deg)
    dec:    declination in degrees
    elong:  elongation in degrees (angle sun-earth-minor planet)    
    phase:  phase angle in degrees (angle sun-minor planet-earth)        
    AU:     Astronomical Unit (mean distance between earth and sun: 149597870.7 km
    

Orbital elements provided by the MPC (Minor Planet Center).
Calculations by a modified version of AAPlus, a C# implementation of the AA+ project by PJ Naughter from the algorithms presented in the book "Astronomical Algorithms" by Jean Meeus.
NGC2000 dso catalog and star labels from VizieR as provided by the Strasbourg astronomical Data Center.
Tycho2 catalog from the ESO archive.